Year,Month,Day,Hour,Minute,Value (Times are PST for temperature in C)
2013,08,22,00,00,14.90
2013,08,22,00,01,14.90
2013,08,22,00,02,15.00
2013,08,22,00,03,15.10
2013,08,22,00,04,15.20
2013,08,22,00,05,15.20
2013,08,22,00,06,15.10
2013,08,22,00,07,14.90
2013,08,22,00,08,14.90
2013,08,22,00,09,14.80
2013,08,22,00,10,14.70
2013,08,22,00,11,14.50
2013,08,22,00,12,14.40
2013,08,22,00,13,14.30
2013,08,22,00,14,14.30
2013,08,22,00,15,14.30
2013,08,22,00,16,14.50
2013,08,22,00,17,14.80
2013,08,22,00,18,15.20
2013,08,22,00,19,15.50
2013,08,22,00,20,15.80
2013,08,22,00,21,16.00
2013,08,22,00,22,16.20
2013,08,22,00,23,16.30
2013,08,22,00,24,16.50
2013,08,22,00,25,16.60
2013,08,22,00,26,16.70
2013,08,22,00,27,16.80
2013,08,22,00,28,16.80
2013,08,22,00,29,16.60
2013,08,22,00,30,16.30
2013,08,22,00,31,15.90
2013,08,22,00,32,15.70
2013,08,22,00,33,15.70
2013,08,22,00,34,15.80
2013,08,22,00,35,15.80
2013,08,22,00,36,15.90
2013,08,22,00,37,16.00
2013,08,22,00,38,16.00
2013,08,22,00,39,15.80
2013,08,22,00,40,15.60
2013,08,22,00,41,15.40
2013,08,22,00,42,15.30
2013,08,22,00,43,15.10
2013,08,22,00,44,14.90
2013,08,22,00,45,14.70
2013,08,22,00,46,14.50
2013,08,22,00,47,14.30
2013,08,22,00,48,14.10
2013,08,22,00,49,14.10
2013,08,22,00,50,14.10
2013,08,22,00,51,14.00
2013,08,22,00,52,14.00
2013,08,22,00,53,13.90
2013,08,22,00,54,13.90
2013,08,22,00,55,13.80
2013,08,22,00,56,13.80
2013,08,22,00,57,13.80
2013,08,22,00,58,13.80
2013,08,22,00,59,13.80
2013,08,22,01,00,13.80
2013,08,22,01,01,13.90
2013,08,22,01,02,14.30
2013,08,22,01,03,14.70
2013,08,22,01,04,15.10
2013,08,22,01,05,15.50
2013,08,22,01,06,15.90
2013,08,22,01,07,16.30
2013,08,22,01,08,16.60
2013,08,22,01,09,16.90
2013,08,22,01,10,17.10
2013,08,22,01,11,17.40
2013,08,22,01,12,17.60
2013,08,22,01,13,17.70
2013,08,22,01,14,17.80
2013,08,22,01,15,17.80
2013,08,22,01,16,17.80
2013,08,22,01,17,17.80
2013,08,22,01,18,17.70
2013,08,22,01,19,17.70
2013,08,22,01,20,17.70
2013,08,22,01,21,17.70
2013,08,22,01,22,17.70
2013,08,22,01,23,17.60
2013,08,22,01,24,17.40
2013,08,22,01,25,17.00
2013,08,22,01,26,16.70
2013,08,22,01,27,16.40
2013,08,22,01,28,16.20
2013,08,22,01,29,16.00
2013,08,22,01,30,15.90
2013,08,22,01,31,15.70
2013,08,22,01,32,15.60
2013,08,22,01,33,15.40
2013,08,22,01,34,15.30
2013,08,22,01,35,15.20
2013,08,22,01,36,15.10
2013,08,22,01,37,15.00
2013,08,22,01,38,14.90
2013,08,22,01,39,14.80
2013,08,22,01,40,14.80
2013,08,22,01,41,14.70
2013,08,22,01,42,14.60
2013,08,22,01,43,14.60
2013,08,22,01,44,14.50
2013,08,22,01,45,14.50
2013,08,22,01,46,14.40
2013,08,22,01,47,14.30
2013,08,22,01,48,14.30
2013,08,22,01,49,14.30
2013,08,22,01,50,14.30
2013,08,22,01,51,14.30
2013,08,22,01,52,14.10
2013,08,22,01,53,14.00
2013,08,22,01,54,14.00
2013,08,22,01,55,13.90
2013,08,22,01,56,13.90
2013,08,22,01,57,13.90
2013,08,22,01,58,13.90
2013,08,22,01,59,13.90
2013,08,22,02,00,14.00
2013,08,22,02,01,14.10
2013,08,22,02,02,14.10
2013,08,22,02,03,14.10
2013,08,22,02,04,14.00
2013,08,22,02,05,14.00
2013,08,22,02,06,14.00
2013,08,22,02,07,14.00
2013,08,22,02,08,13.90
2013,08,22,02,09,13.80
2013,08,22,02,10,13.70
2013,08,22,02,11,13.70
2013,08,22,02,12,13.70
2013,08,22,02,13,13.60
2013,08,22,02,14,13.60
2013,08,22,02,15,13.50
2013,08,22,02,16,13.40
2013,08,22,02,17,13.40
2013,08,22,02,18,13.30
2013,08,22,02,19,13.30
2013,08,22,02,20,13.30
2013,08,22,02,21,13.30
2013,08,22,02,22,13.30
2013,08,22,02,23,13.30
2013,08,22,02,24,13.40
2013,08,22,02,25,13.60
2013,08,22,02,26,13.70
2013,08,22,02,27,13.80
2013,08,22,02,28,13.80
2013,08,22,02,29,13.70
2013,08,22,02,30,13.70
2013,08,22,02,31,13.60
2013,08,22,02,32,13.50
2013,08,22,02,33,13.50
2013,08,22,02,34,13.40
2013,08,22,02,35,13.30
2013,08,22,02,36,13.30
2013,08,22,02,37,13.20
2013,08,22,02,38,13.20
2013,08,22,02,39,13.10
2013,08,22,02,40,13.10
2013,08,22,02,41,13.00
2013,08,22,02,42,13.00
2013,08,22,02,43,13.10
2013,08,22,02,44,13.40
2013,08,22,02,45,13.50
2013,08,22,02,46,13.60
2013,08,22,02,47,13.50
2013,08,22,02,48,13.40
2013,08,22,02,49,13.20
2013,08,22,02,50,13.10
2013,08,22,02,51,13.10
2013,08,22,02,52,13.00
2013,08,22,02,53,13.00
2013,08,22,02,54,12.90
2013,08,22,02,55,12.90
2013,08,22,02,56,12.80
2013,08,22,02,57,12.80
2013,08,22,02,58,12.70
2013,08,22,02,59,12.70
2013,08,22,03,00,12.60
2013,08,22,03,01,12.50
2013,08,22,03,02,12.50
2013,08,22,03,03,12.60
2013,08,22,03,04,12.60
2013,08,22,03,05,12.50
2013,08,22,03,06,12.60
2013,08,22,03,07,12.60
2013,08,22,03,08,12.80
2013,08,22,03,09,12.90
2013,08,22,03,10,13.00
2013,08,22,03,11,13.10
2013,08,22,03,12,13.30
2013,08,22,03,13,13.40
2013,08,22,03,14,13.60
2013,08,22,03,15,13.70
2013,08,22,03,16,13.80
2013,08,22,03,17,13.80
2013,08,22,03,18,13.80
2013,08,22,03,19,13.70
2013,08,22,03,20,13.70
2013,08,22,03,21,13.70
2013,08,22,03,22,13.60
2013,08,22,03,23,13.60
2013,08,22,03,24,13.60
2013,08,22,03,25,13.60
2013,08,22,03,26,13.60
2013,08,22,03,27,13.70
2013,08,22,03,28,13.70
2013,08,22,03,29,13.70
2013,08,22,03,30,13.80
2013,08,22,03,31,13.90
2013,08,22,03,32,14.10
2013,08,22,03,33,14.20
2013,08,22,03,34,14.30
2013,08,22,03,35,14.40
2013,08,22,03,36,14.50
2013,08,22,03,37,14.60
2013,08,22,03,38,14.60
2013,08,22,03,39,14.70
2013,08,22,03,40,14.70
2013,08,22,03,41,14.70
2013,08,22,03,42,14.80
2013,08,22,03,43,14.90
2013,08,22,03,44,14.90
2013,08,22,03,45,15.00
2013,08,22,03,46,15.00
2013,08,22,03,47,15.10
2013,08,22,03,48,15.10
2013,08,22,03,49,15.10
2013,08,22,03,50,15.00
2013,08,22,03,51,15.00
2013,08,22,03,52,15.10
2013,08,22,03,53,15.10
2013,08,22,03,54,15.00
2013,08,22,03,55,15.00
2013,08,22,03,56,14.90
2013,08,22,03,57,14.80
2013,08,22,03,58,14.80
2013,08,22,03,59,14.70
2013,08,22,04,00,14.70
2013,08,22,04,01,14.70
2013,08,22,04,02,14.60
2013,08,22,04,03,14.60
2013,08,22,04,04,14.60
2013,08,22,04,05,14.60
2013,08,22,04,06,14.50
2013,08,22,04,07,14.50
2013,08,22,04,08,14.40
2013,08,22,04,09,14.40
2013,08,22,04,10,14.40
2013,08,22,04,11,14.50
2013,08,22,04,12,14.50
2013,08,22,04,13,14.60
2013,08,22,04,14,14.60
2013,08,22,04,15,14.60
2013,08,22,04,16,14.60
2013,08,22,04,17,14.60
2013,08,22,04,18,14.60
2013,08,22,04,19,14.50
2013,08,22,04,20,14.50
2013,08,22,04,21,14.50
2013,08,22,04,22,14.40
2013,08,22,04,23,14.40
2013,08,22,04,24,14.40
2013,08,22,04,25,14.30
2013,08,22,04,26,14.30
2013,08,22,04,27,14.20
2013,08,22,04,28,14.20
2013,08,22,04,29,14.20
2013,08,22,04,30,14.20
2013,08,22,04,31,14.20
2013,08,22,04,32,14.20
2013,08,22,04,33,14.20
2013,08,22,04,34,14.20
2013,08,22,04,35,14.20
2013,08,22,04,36,14.20
2013,08,22,04,37,14.20
2013,08,22,04,38,14.20
2013,08,22,04,39,14.20
2013,08,22,04,40,14.20
2013,08,22,05,13,14.10
2013,08,22,05,14,14.10
2013,08,22,05,15,14.20
2013,08,22,05,16,14.20
2013,08,22,05,17,14.20
2013,08,22,05,18,14.30
2013,08,22,05,19,14.30
2013,08,22,05,20,14.30
2013,08,22,05,21,14.30
2013,08,22,05,22,14.30
2013,08,22,05,23,14.30
2013,08,22,05,24,14.40
2013,08,22,05,25,14.50
2013,08,22,05,26,14.50
2013,08,22,05,27,14.60
2013,08,22,05,28,14.60
2013,08,22,05,29,14.60
2013,08,22,05,30,14.60
2013,08,22,05,31,14.60
2013,08,22,05,32,14.50
2013,08,22,05,33,14.40
2013,08,22,05,34,14.30
2013,08,22,05,35,14.20
2013,08,22,05,36,14.10
2013,08,22,05,37,14.10
2013,08,22,05,38,14.10
2013,08,22,05,39,14.10
2013,08,22,05,40,14.10
2013,08,22,05,41,14.10
2013,08,22,05,42,14.00
2013,08,22,05,43,14.00
2013,08,22,05,44,13.90
2013,08,22,05,45,13.90
2013,08,22,05,46,13.80
2013,08,22,05,47,13.70
2013,08,22,05,48,13.60
2013,08,22,05,49,13.50
2013,08,22,05,50,13.50
2013,08,22,05,51,13.50
2013,08,22,05,52,13.50
2013,08,22,05,53,13.60
2013,08,22,05,54,13.70
2013,08,22,05,55,13.80
2013,08,22,05,56,13.90
2013,08,22,05,57,13.90
2013,08,22,05,58,14.00
2013,08,22,05,59,14.00
2013,08,22,06,00,13.90
2013,08,22,06,01,13.90
2013,08,22,06,02,13.80
2013,08,22,06,03,13.80
2013,08,22,06,04,13.80
2013,08,22,06,05,13.80
2013,08,22,06,06,13.80
2013,08,22,06,07,13.80
2013,08,22,06,08,13.90
2013,08,22,06,09,14.00
2013,08,22,06,10,14.00
2013,08,22,06,11,14.10
2013,08,22,06,12,14.20
2013,08,22,06,13,14.30
2013,08,22,06,14,14.50
2013,08,22,06,15,14.80
2013,08,22,06,16,15.10
2013,08,22,06,17,15.40
2013,08,22,06,18,15.60
2013,08,22,06,19,15.80
2013,08,22,06,20,16.00
2013,08,22,06,21,16.10
2013,08,22,06,22,16.10
2013,08,22,06,23,16.20
2013,08,22,06,24,16.20
2013,08,22,06,25,16.30
2013,08,22,06,26,16.30
2013,08,22,06,27,16.20
2013,08,22,06,28,16.20
2013,08,22,06,29,16.20
2013,08,22,06,30,16.10
2013,08,22,06,31,16.10
2013,08,22,06,32,16.10
2013,08,22,06,33,16.00
2013,08,22,06,34,15.90
2013,08,22,06,35,15.60
2013,08,22,06,36,15.30
2013,08,22,06,37,15.00
2013,08,22,06,38,14.80
2013,08,22,06,39,14.50
2013,08,22,06,40,14.30
2013,08,22,06,41,14.20
2013,08,22,06,42,14.10
2013,08,22,06,43,14.10
2013,08,22,06,44,14.00
2013,08,22,06,45,14.00
2013,08,22,06,46,13.90
2013,08,22,06,47,13.80
2013,08,22,06,48,13.80
2013,08,22,06,49,13.80
2013,08,22,06,50,13.80
2013,08,22,06,51,13.70
2013,08,22,06,52,13.70
2013,08,22,06,53,13.70
2013,08,22,06,54,13.60
2013,08,22,06,55,13.50
2013,08,22,06,56,13.50
2013,08,22,06,57,13.40
2013,08,22,06,58,13.30
2013,08,22,06,59,13.20
2013,08,22,07,00,13.20
2013,08,22,07,01,13.20
2013,08,22,07,02,13.20
2013,08,22,07,03,13.20
2013,08,22,07,04,13.20
2013,08,22,07,05,13.20
2013,08,22,07,06,13.10
2013,08,22,07,07,13.00
2013,08,22,07,08,12.90
2013,08,22,07,09,12.80
2013,08,22,07,10,12.80
2013,08,22,07,11,12.70
2013,08,22,07,12,12.80
2013,08,22,07,13,12.90
2013,08,22,07,14,12.90
2013,08,22,07,15,13.00
2013,08,22,07,16,13.10
2013,08,22,07,17,13.30
2013,08,22,07,18,13.30
2013,08,22,07,19,13.40
2013,08,22,07,20,13.40
2013,08,22,07,21,13.40
2013,08,22,07,22,13.50
2013,08,22,07,23,13.60
2013,08,22,07,24,13.70
2013,08,22,07,25,13.70
2013,08,22,07,26,13.90
2013,08,22,07,27,14.10
2013,08,22,07,28,14.20
2013,08,22,07,29,14.30
2013,08,22,07,30,14.40
2013,08,22,07,31,14.40
2013,08,22,07,32,14.30
2013,08,22,07,33,14.30
2013,08,22,07,34,14.30
2013,08,22,07,35,14.30
2013,08,22,07,36,14.30
2013,08,22,07,37,14.30
2013,08,22,07,38,14.30
2013,08,22,07,39,14.40
2013,08,22,07,40,14.40
2013,08,22,07,41,14.50
2013,08,22,07,42,14.50
2013,08,22,07,43,14.60
2013,08,22,07,44,14.80
2013,08,22,07,45,14.90
2013,08,22,07,46,15.00
2013,08,22,07,47,15.20
2013,08,22,07,48,15.30
2013,08,22,07,49,15.40
2013,08,22,07,50,15.50
2013,08,22,07,51,15.60
2013,08,22,07,52,15.60
2013,08,22,07,53,15.60
2013,08,22,07,54,15.70
2013,08,22,07,55,15.70
2013,08,22,07,56,15.80
2013,08,22,07,57,15.90
2013,08,22,07,58,16.00
2013,08,22,07,59,16.00
2013,08,22,08,00,16.10
2013,08,22,08,01,16.10
2013,08,22,08,02,16.10
2013,08,22,08,03,16.20
2013,08,22,08,04,16.20
2013,08,22,08,05,16.30
2013,08,22,08,06,16.30
2013,08,22,08,07,16.30
2013,08,22,08,08,16.30
2013,08,22,08,09,16.40
2013,08,22,08,10,16.40
2013,08,22,08,11,16.40
2013,08,22,08,12,16.30
2013,08,22,08,13,16.20
2013,08,22,08,14,16.10
2013,08,22,08,15,16.00
2013,08,22,08,16,15.90
2013,08,22,08,17,15.80
2013,08,22,08,18,15.70
2013,08,22,08,19,15.70
2013,08,22,08,20,15.70
2013,08,22,08,21,15.70
2013,08,22,08,22,15.60
2013,08,22,08,23,15.70
2013,08,22,08,24,15.70
2013,08,22,08,25,15.60
2013,08,22,08,26,15.60
2013,08,22,08,27,15.50
2013,08,22,08,28,15.30
2013,08,22,08,29,15.10
2013,08,22,08,30,14.80
2013,08,22,08,31,14.70
2013,08,22,08,32,14.60
2013,08,22,08,33,14.50
2013,08,22,08,34,14.40
2013,08,22,08,35,14.40
2013,08,22,08,36,14.40
2013,08,22,08,37,14.40
2013,08,22,08,38,14.40
2013,08,22,08,39,14.40
2013,08,22,08,40,14.40
2013,08,22,08,41,14.50
2013,08,22,08,42,14.70
2013,08,22,08,43,14.80
2013,08,22,08,44,14.90
2013,08,22,08,45,15.00
2013,08,22,08,46,15.10
2013,08,22,08,47,15.20
2013,08,22,08,48,15.20
2013,08,22,08,49,15.30
2013,08,22,08,50,15.30
2013,08,22,08,51,15.30
2013,08,22,08,52,15.30
2013,08,22,08,53,15.20
2013,08,22,08,54,15.20
2013,08,22,08,55,15.10
2013,08,22,08,56,15.10
2013,08,22,08,57,15.00
2013,08,22,08,58,15.00
2013,08,22,08,59,15.00
2013,08,22,09,00,15.10
2013,08,22,09,01,15.20
2013,08,22,09,02,15.20
2013,08,22,09,03,15.10
2013,08,22,09,04,15.00
2013,08,22,09,05,15.00
2013,08,22,09,06,15.10
2013,08,22,09,07,15.20
2013,08,22,09,08,15.30
2013,08,22,09,09,15.40
2013,08,22,09,10,15.40
2013,08,22,09,11,15.30
2013,08,22,09,12,15.20
2013,08,22,09,13,15.00
2013,08,22,09,14,14.90
2013,08,22,09,15,14.70
2013,08,22,09,16,14.40
2013,08,22,09,17,14.20
2013,08,22,09,18,14.00
2013,08,22,09,19,13.80
2013,08,22,09,20,13.60
2013,08,22,09,21,13.40
2013,08,22,09,22,13.30
2013,08,22,09,23,13.30
2013,08,22,09,24,13.20
2013,08,22,09,25,13.10
2013,08,22,09,26,13.10
2013,08,22,09,27,13.20
2013,08,22,09,28,13.20
2013,08,22,09,29,13.30
2013,08,22,09,30,13.30
2013,08,22,09,31,13.30
2013,08,22,09,32,13.30
2013,08,22,09,33,13.30
2013,08,22,09,34,13.20
2013,08,22,09,35,13.10
2013,08,22,09,36,13.10
2013,08,22,09,37,13.20
2013,08,22,09,38,13.30
2013,08,22,09,39,13.30
2013,08,22,09,40,13.30
2013,08,22,09,41,13.30
2013,08,22,09,42,13.30
2013,08,22,09,43,13.30
2013,08,22,09,44,13.30
2013,08,22,09,45,13.30
2013,08,22,09,46,13.20
2013,08,22,09,47,13.20
2013,08,22,09,48,13.10
2013,08,22,09,49,13.10
2013,08,22,09,50,13.00
2013,08,22,09,51,13.00
2013,08,22,09,52,13.00
2013,08,22,09,53,13.00
2013,08,22,09,54,13.00
2013,08,22,09,55,13.00
2013,08,22,09,56,13.00
2013,08,22,09,57,12.90
2013,08,22,09,58,12.90
2013,08,22,09,59,12.90
2013,08,22,10,00,13.00
2013,08,22,10,01,13.00
2013,08,22,10,02,13.00
2013,08,22,10,03,13.00
2013,08,22,10,04,13.00
2013,08,22,10,05,13.10
2013,08,22,10,06,13.20
2013,08,22,10,07,13.30
2013,08,22,10,08,13.30
2013,08,22,10,09,13.40
2013,08,22,10,10,13.50
2013,08,22,10,11,13.60
2013,08,22,10,12,13.70
2013,08,22,10,13,13.80
2013,08,22,10,14,13.80
2013,08,22,10,15,13.90
2013,08,22,10,16,13.90
2013,08,22,10,17,14.00
2013,08,22,10,18,14.00
2013,08,22,10,19,14.10
2013,08,22,10,20,14.10
2013,08,22,10,21,14.20
2013,08,22,10,22,14.20
2013,08,22,10,23,14.20
2013,08,22,10,24,14.30
2013,08,22,10,25,14.40
2013,08,22,10,26,14.40
2013,08,22,10,27,14.50
2013,08,22,10,28,14.50
2013,08,22,10,29,14.60
2013,08,22,10,30,14.70
2013,08,22,10,31,14.80
2013,08,22,10,32,14.80
2013,08,22,10,33,14.90
2013,08,22,10,34,15.00
2013,08,22,10,35,15.00
2013,08,22,10,36,15.10
2013,08,22,10,37,15.20
2013,08,22,10,38,15.20
2013,08,22,10,39,15.30
2013,08,22,10,40,15.30
2013,08,22,10,41,15.30
2013,08,22,10,42,15.30
2013,08,22,10,43,15.40
2013,08,22,10,44,15.40
2013,08,22,10,45,15.40
2013,08,22,10,46,15.50
2013,08,22,10,47,15.50
2013,08,22,10,48,15.60
2013,08,22,10,49,15.60
2013,08,22,10,50,15.60
2013,08,22,10,51,15.70
2013,08,22,10,52,15.70
2013,08,22,10,53,15.70
2013,08,22,10,54,15.70
2013,08,22,10,55,15.70
2013,08,22,10,56,15.70
2013,08,22,10,57,15.80
2013,08,22,10,58,15.80
2013,08,22,10,59,15.80
2013,08,22,11,00,15.80
2013,08,22,11,01,15.80
2013,08,22,11,02,15.80
2013,08,22,11,03,15.80
2013,08,22,11,04,15.80
2013,08,22,11,05,15.80
2013,08,22,11,06,15.80
2013,08,22,11,07,15.80
2013,08,22,11,08,15.80
2013,08,22,11,09,15.80
2013,08,22,11,10,15.80
2013,08,22,11,11,15.80
2013,08,22,11,12,15.80
2013,08,22,11,13,15.80
2013,08,22,11,14,15.70
2013,08,22,11,15,15.70
2013,08,22,11,16,15.60
2013,08,22,11,17,15.60
2013,08,22,11,18,15.60
2013,08,22,11,19,15.50
2013,08,22,11,20,15.50
2013,08,22,11,21,15.50
2013,08,22,11,22,15.50
2013,08,22,11,23,15.50
2013,08,22,11,24,15.50
2013,08,22,11,25,15.50
2013,08,22,11,26,15.40
2013,08,22,11,27,15.40
2013,08,22,11,28,15.40
2013,08,22,11,29,15.40
2013,08,22,11,30,15.40
2013,08,22,11,31,15.30
2013,08,22,11,32,15.30
2013,08,22,11,33,15.30
2013,08,22,11,34,15.30
2013,08,22,11,35,15.30
2013,08,22,11,36,15.20
2013,08,22,11,37,15.20
2013,08,22,11,38,15.20
2013,08,22,11,39,15.20
2013,08,22,11,40,15.30
2013,08,22,11,41,15.30
2013,08,22,11,42,15.30
2013,08,22,11,43,15.30
2013,08,22,11,44,15.20
2013,08,22,11,45,15.20
2013,08,22,11,46,15.20
2013,08,22,11,47,15.20
2013,08,22,11,48,15.20
2013,08,22,11,49,15.20
2013,08,22,11,50,15.30
2013,08,22,11,51,15.30
2013,08,22,11,52,15.30
2013,08,22,11,53,15.40
2013,08,22,11,54,15.40
2013,08,22,11,55,15.40
2013,08,22,11,56,15.40
2013,08,22,11,57,15.40
2013,08,22,11,58,15.40
2013,08,22,11,59,15.50
2013,08,22,12,00,15.70
2013,08,22,12,01,15.90
2013,08,22,12,02,16.10
2013,08,22,12,03,16.30
2013,08,22,12,04,16.50
2013,08,22,12,05,16.60
2013,08,22,12,06,16.80
2013,08,22,12,07,16.90
2013,08,22,12,08,17.00
2013,08,22,12,09,17.00
2013,08,22,12,10,17.10
2013,08,22,12,11,17.10
2013,08,22,12,12,17.20
2013,08,22,12,13,17.20
2013,08,22,12,14,17.20
2013,08,22,12,15,17.30
2013,08,22,12,16,17.30
2013,08,22,12,17,17.40
2013,08,22,12,18,17.40
2013,08,22,12,19,17.50
2013,08,22,12,20,17.50
2013,08,22,12,21,17.60
2013,08,22,12,22,17.60
2013,08,22,12,23,17.60
2013,08,22,12,24,17.60
2013,08,22,12,25,17.70
2013,08,22,12,26,17.70
2013,08,22,12,27,17.70
2013,08,22,12,28,17.70
2013,08,22,12,29,17.70
2013,08,22,12,30,17.70
2013,08,22,12,31,17.80
2013,08,22,12,32,17.80
2013,08,22,12,33,17.80
2013,08,22,12,34,17.80
2013,08,22,12,35,17.80
2013,08,22,12,36,17.80
2013,08,22,12,37,17.80
2013,08,22,12,38,17.80
2013,08,22,12,39,17.80
2013,08,22,12,40,17.70
2013,08,22,12,41,17.70
2013,08,22,12,42,17.70
2013,08,22,12,43,17.70
2013,08,22,12,44,17.70
2013,08,22,12,45,17.80
2013,08,22,12,46,17.80
2013,08,22,12,47,17.80
2013,08,22,12,48,17.80
2013,08,22,12,49,17.80
2013,08,22,12,50,17.80
2013,08,22,12,51,17.70
2013,08,22,12,52,17.70
2013,08,22,12,53,17.70
2013,08,22,12,54,17.70
2013,08,22,12,55,17.70
2013,08,22,12,56,17.70
2013,08,22,12,57,17.80
2013,08,22,12,58,17.80
2013,08,22,12,59,17.80
2013,08,22,13,00,17.80
2013,08,22,13,01,17.80
2013,08,22,13,02,17.80
2013,08,22,13,03,17.80
2013,08,22,13,04,17.80
2013,08,22,13,05,17.90
2013,08,22,13,06,17.90
2013,08,22,13,07,17.90
2013,08,22,13,08,17.80
2013,08,22,13,09,17.80
2013,08,22,13,10,17.70
2013,08,22,13,11,17.70
2013,08,22,13,12,17.70
2013,08,22,13,13,17.70
2013,08,22,13,14,17.70
2013,08,22,13,15,17.70
2013,08,22,13,16,17.70
2013,08,22,13,17,17.70
2013,08,22,13,18,17.70
2013,08,22,13,19,17.80
2013,08,22,13,20,17.80
2013,08,22,13,21,17.80
2013,08,22,13,22,17.80
2013,08,22,13,23,17.80
2013,08,22,13,24,17.80
2013,08,22,13,25,17.80
2013,08,22,13,26,17.90
2013,08,22,13,27,17.90
2013,08,22,13,28,18.00
2013,08,22,13,29,18.00
2013,08,22,13,30,18.00
2013,08,22,13,31,18.00
2013,08,22,13,32,18.10
2013,08,22,13,33,18.10
2013,08,22,13,34,18.10
2013,08,22,13,35,18.10
2013,08,22,13,36,18.10
2013,08,22,13,37,18.10
2013,08,22,13,38,18.20
2013,08,22,13,39,18.20
2013,08,22,13,40,18.20
2013,08,22,13,41,18.20
2013,08,22,13,42,18.20
2013,08,22,13,43,18.20
2013,08,22,13,44,18.00
2013,08,22,13,45,17.80
2013,08,22,13,46,17.80
2013,08,22,13,47,17.80
2013,08,22,13,48,17.70
2013,08,22,13,49,16.80
2013,08,22,13,50,16.50
2013,08,22,13,51,16.10
2013,08,22,13,52,15.80
2013,08,22,13,53,15.60
2013,08,22,13,54,15.40
2013,08,22,13,55,15.20
2013,08,22,13,56,14.90
2013,08,22,13,57,14.70
2013,08,22,13,58,14.50
2013,08,22,13,59,14.40
2013,08,22,14,00,14.30
2013,08,22,14,01,14.20
2013,08,22,14,02,14.10
2013,08,22,14,03,14.10
2013,08,22,14,04,14.00
2013,08,22,14,05,14.00
2013,08,22,14,06,14.00
2013,08,22,14,07,14.00
2013,08,22,14,08,14.00
2013,08,22,14,09,14.10
2013,08,22,14,10,14.10
2013,08,22,14,11,14.00
2013,08,22,14,12,14.00
2013,08,22,14,13,14.00
2013,08,22,14,14,14.00
2013,08,22,14,15,14.00
2013,08,22,14,16,14.00
2013,08,22,14,17,14.00
2013,08,22,14,18,14.10
2013,08,22,14,19,14.20
2013,08,22,14,20,14.20
2013,08,22,14,21,14.30
2013,08,22,14,22,14.40
2013,08,22,14,23,14.50
2013,08,22,14,24,14.50
2013,08,22,14,25,14.60
2013,08,22,14,26,14.60
2013,08,22,14,27,14.70
2013,08,22,14,28,14.70
2013,08,22,14,29,14.70
2013,08,22,14,30,14.80
2013,08,22,14,31,14.80
2013,08,22,14,32,14.80
2013,08,22,14,33,14.90
2013,08,22,14,34,15.00
2013,08,22,14,35,15.10
2013,08,22,14,36,15.10
2013,08,22,14,37,15.10
2013,08,22,14,38,15.20
2013,08,22,14,39,15.30
2013,08,22,14,40,15.30
2013,08,22,14,41,15.30
2013,08,22,14,42,15.30
2013,08,22,14,43,15.30
2013,08,22,14,44,15.40
2013,08,22,14,45,15.40
2013,08,22,14,46,15.40
2013,08,22,14,47,15.40
2013,08,22,14,48,15.40
2013,08,22,14,49,15.50
2013,08,22,14,50,15.50
2013,08,22,14,51,15.60
2013,08,22,14,52,15.70
2013,08,22,14,53,15.80
2013,08,22,14,54,15.80
2013,08,22,14,55,15.80
2013,08,22,14,56,15.90
2013,08,22,14,57,15.90
2013,08,22,14,58,16.00
2013,08,22,14,59,16.20
2013,08,22,15,00,16.20
2013,08,22,15,01,16.30
2013,08,22,15,02,16.30
2013,08,22,15,03,16.40
2013,08,22,15,04,16.40
2013,08,22,15,05,16.50
2013,08,22,15,06,16.50
2013,08,22,15,07,16.50
2013,08,22,15,08,16.50
2013,08,22,15,09,16.40
2013,08,22,15,10,16.40
2013,08,22,15,11,16.30
2013,08,22,15,12,16.30
2013,08,22,15,13,16.30
2013,08,22,15,14,16.30
2013,08,22,15,15,16.30
2013,08,22,15,16,16.40
2013,08,22,15,17,16.50
2013,08,22,15,18,16.50
2013,08,22,15,19,16.50
2013,08,22,15,20,16.60
2013,08,22,15,21,16.60
2013,08,22,15,22,16.60
2013,08,22,15,23,16.60
2013,08,22,15,24,16.60
2013,08,22,15,25,16.50
2013,08,22,15,26,16.50
2013,08,22,15,27,16.50
2013,08,22,15,28,16.40
2013,08,22,15,29,16.40
2013,08,22,15,30,16.40
2013,08,22,15,31,16.40
2013,08,22,15,32,16.40
2013,08,22,15,33,16.40
2013,08,22,15,34,16.40
2013,08,22,15,35,16.50
2013,08,22,15,36,16.50
2013,08,22,15,37,16.60
2013,08,22,15,38,16.70
2013,08,22,15,39,16.80
2013,08,22,15,40,16.90
2013,08,22,15,41,16.90
2013,08,22,15,42,17.00
2013,08,22,15,43,17.00
2013,08,22,15,44,17.10
2013,08,22,15,45,17.10
2013,08,22,15,46,17.20
2013,08,22,15,47,17.20
2013,08,22,15,48,17.20
2013,08,22,15,49,17.20
2013,08,22,15,50,17.20
2013,08,22,15,51,17.30
2013,08,22,15,52,17.30
2013,08,22,15,53,17.30
2013,08,22,15,54,17.40
2013,08,22,15,55,17.50
2013,08,22,15,56,17.60
2013,08,22,15,57,17.60
2013,08,22,15,58,17.70
2013,08,22,15,59,17.70
2013,08,22,16,00,17.80
2013,08,22,16,01,17.90
2013,08,22,16,02,17.90
2013,08,22,16,03,18.00
2013,08,22,16,04,18.10
2013,08,22,16,05,18.10
2013,08,22,16,06,18.20
2013,08,22,16,07,18.20
2013,08,22,16,08,18.30
2013,08,22,16,09,18.30
2013,08,22,16,10,18.30
2013,08,22,16,11,18.30
2013,08,22,16,12,18.20
2013,08,22,16,13,18.20
2013,08,22,16,14,18.10
2013,08,22,16,15,18.10
2013,08,22,16,16,18.10
2013,08,22,16,17,18.10
2013,08,22,16,18,18.20
2013,08,22,16,19,18.20
2013,08,22,16,20,18.20
2013,08,22,16,21,18.20
2013,08,22,16,22,18.30
2013,08,22,16,23,18.30
2013,08,22,16,24,18.30
2013,08,22,16,25,18.40
2013,08,22,16,26,18.40
2013,08,22,16,27,18.50
2013,08,22,16,28,18.60
2013,08,22,16,29,18.70
2013,08,22,16,30,18.80
2013,08,22,16,31,18.80
2013,08,22,16,32,18.90
2013,08,22,16,33,18.90
2013,08,22,16,34,18.90
2013,08,22,16,35,18.90
2013,08,22,16,36,19.00
2013,08,22,16,37,19.00
2013,08,22,16,38,19.00
2013,08,22,16,39,19.00
2013,08,22,16,40,19.00
2013,08,22,16,41,19.00
2013,08,22,16,42,19.10
2013,08,22,16,43,19.10
2013,08,22,16,44,19.20
2013,08,22,16,45,19.20
2013,08,22,16,46,19.30
2013,08,22,16,47,19.30
2013,08,22,16,48,19.30
2013,08,22,16,49,19.30
2013,08,22,16,50,19.30
2013,08,22,16,51,19.40
2013,08,22,16,52,19.40
2013,08,22,16,53,19.30
2013,08,22,16,54,19.30
2013,08,22,16,55,19.30
2013,08,22,16,56,19.30
2013,08,22,16,57,19.30
2013,08,22,16,58,19.20
2013,08,22,16,59,19.20
2013,08,22,17,00,19.20
2013,08,22,17,01,19.10
2013,08,22,17,02,19.00
2013,08,22,17,03,18.90
2013,08,22,17,04,18.80
2013,08,22,17,05,18.70
2013,08,22,17,06,18.60
2013,08,22,17,07,18.30
2013,08,22,17,08,18.00
2013,08,22,17,09,17.80
2013,08,22,17,10,17.70
2013,08,22,17,11,17.60
2013,08,22,17,12,17.10
2013,08,22,17,13,16.60
2013,08,22,17,14,16.00
2013,08,22,17,15,15.60
2013,08,22,17,16,15.20
2013,08,22,17,17,14.90
2013,08,22,17,18,14.60
2013,08,22,17,19,14.40
2013,08,22,17,20,14.20
2013,08,22,17,21,14.20
2013,08,22,17,22,14.10
2013,08,22,17,23,14.00
2013,08,22,17,24,13.90
2013,08,22,17,25,13.90
2013,08,22,17,26,13.90
2013,08,22,17,27,13.90
2013,08,22,17,28,14.00
2013,08,22,17,29,14.00
2013,08,22,17,30,14.00
2013,08,22,17,31,13.90
2013,08,22,17,32,13.90
2013,08,22,17,33,13.90
2013,08,22,17,34,13.90
2013,08,22,17,35,13.90
2013,08,22,17,36,13.90
2013,08,22,17,37,14.00
2013,08,22,17,38,14.10
2013,08,22,17,39,14.10
2013,08,22,17,40,14.30
2013,08,22,17,41,14.40
2013,08,22,17,42,14.60
2013,08,22,17,43,14.70
2013,08,22,17,44,14.90
2013,08,22,17,45,15.00
2013,08,22,17,46,15.00
2013,08,22,17,47,15.00
2013,08,22,17,48,15.10
2013,08,22,17,49,15.20
2013,08,22,17,50,15.30
2013,08,22,17,51,15.40